Location: Buchdorf
(48.7842°N, 10.8275°E)
Time: 02:52:54
(UTC+00:00)

X-37B - Pass Details

Date: 14 March 2021
Orbit: 380 x 394 km, 45.0° (Epoch: 07 April)

Event Time Altitude Azimuth Distance (km) Brightness Sun altitude
Rises 19:33:13 0° 252° (WSW) 2,272 5.2 -22.1°
Reaches altitude 10° 19:35:20 10° 245° (WSW) 1,420 3.9 -22.4°
Enters shadow 19:36:47 22° 231° (SW) 899 2.6 -22.7°
